World > North America > United States > Connecticut

Guilford, Connecticut Regional Weather

Lat: 41.28N, Lon: 72.68W
Wx Zone: CTZ010Web Search

Helpful Tip: Abbreviated, 7 Day, 14 Day Forecasts. There is a weather forecast for every taste.

Feedback
Guilford Weather Map
UTC Time: 1/18/2021, 16:47
Your Time:

Guilford, CT Regional Weather

Expires:202101181700;;112959
ASUS41 KOKX 181614
RWROKX

Regional Weather Roundup
National Weather Service New York NY
1100 AM EST MON JAN 18 2021

Note: "FAIR" indicates few or no clouds below 12,000 feet with no
significant weather and/or obstructions to visibility.


CTZ002-004>006-009-010-012-RIZ004-006-007-MAZ004-011-015-181700-
Southern New England

 In CT
  
CITY           SKY/WX    TMP DP  RH WIND       PRES   REMARKS
Bradley Intl   PTSUNNY   44  26  49 W7        29.66S                  
Hartford       MOSUNNY   43  26  51 W10G20    29.67F                  
Danbury        CLOUDY    39  26  59 W12G23    29.70F WCI  32          
Wtrbury/Oxford PTSUNNY   39  28  64 W10G17    29.68S WCI  32          
Norwalk Harbor   N/A     39 N/A N/A W16         N/A  WCI  30          
Bridgeport     SUNNY     43  30  60 SW16      29.71F                  
Meriden        PTSUNNY   43  26  51 VRB7      29.69F                  
New Haven      SUNNY     44  32  62 SW9G17    29.70F                  
Chester        FAIR      43  27  52 SW9G18    29.67F                  
Groton         MOSUNNY   43  31  62 SW17G25   29.68F                  
Willimantic    SUNNY     42  26  53 W9G17     29.67F                  

 In RI
  
CITY           SKY/WX    TMP DP  RH WIND       PRES   REMARKS
Providence     MOSUNNY   44  27  51 W14       29.66F                  
Block Island   SUNNY     42  29  59 W21       29.70F                  
Westerly       MOSUNNY   40  29  64 SW15G22   29.69F WCI  32          
 
In MA
  
CITY           SKY/WX    TMP DP  RH WIND       PRES   REMARKS
Boston         MOSUNNY   42  26  53 W15G21    29.62F                  
Worcester      PTSUNNY   38  25  59 W17G25    29.60F WCI  28          
Westfield      PTSUNNY   42  27  55 W16       29.64F                  
Provincetown   NOT AVBL                                               
Nantucket      SUNNY     45  32  60 W20       29.67F                  
$$


SKY/WX - Weather  TMP - Temperature  DP - Dew Point  RH - Relative Humidity
WIND - Wind Direction/Speed PRES - Barometric Pressure VSB - Visibility
WCI - Wind Chill Index E13G22 Wind - East Wind 13 mph/Gusts of 22 mph